• In Uzbekistan
  • List of Countries
  • For 7 days
  • Water Temperature
  • Satellite Maps
  • Weather Map
  • Weather Widgets
  • user-avatar
    Login

    Hourly Weather Elbasan

    Today, 20 October, Friday

    Time Temperature Precipitation Wind Pressure Humidity
    00:00 +16°C° 0 mm 1 mps 737 mmHg 76%
    01:00 +16°C° 0 mm 1 mps 737 mmHg 76%
    02:00 +16°C° 0 mm 1 mps 737 mmHg 76%
    03:00 +15°C° 0 mm 1 mps 737 mmHg 76%
    04:00 +15°C° 0 mm 1 mps 737 mmHg 76%
    05:00 +16°C° 0 mm 1 mps 737 mmHg 74%
    06:00 +16°C° 0 mm 1 mps 737 mmHg 72%
    07:00 +18°C° 0 mm 1 mps 737 mmHg 70%
    08:00 +20°C° 0 mm 1 mps 737 mmHg 63%
    09:00 +22°C° 0 mm 1 mps 738 mmHg 56%
    10:00 +23°C° 0 mm 1 mps 738 mmHg 49%
    11:00 +24°C° 0 mm 1 mps 738 mmHg 47%
    12:00 +25°C° 0 mm 2 mps 738 mmHg 44%
    13:00 +25°C° 0 mm 2 mps 738 mmHg 42%
    14:00 +24°C° 0 mm 2 mps 737 mmHg 46%
    15:00 +24°C° 0 mm 2 mps 737 mmHg 51%
    16:00 +23°C° 0 mm 2 mps 737 mmHg 55%
    17:00 +20°C° 0 mm 2 mps 737 mmHg 63%
    18:00 +19°C° 0 mm 1 mps 738 mmHg 72%
    19:00 +18°C° 0 mm 1 mps 738 mmHg 80%
    20:00 +16°C° 0 mm 1 mps 738 mmHg 81%
    21:00 +16°C° 0 mm 1 mps 738 mmHg 82%
    22:00 +16°C° 0 mm 1 mps 738 mmHg 84%
    23:00 +15°C° 0 mm 1 mps 738 mmHg 83%

    Tomorrow, 21 October, Saturday

    Time Temperature Precipitation Wind Pressure Humidity
    00:00 +15°C° 0 mm 1 mps 738 mmHg 83%
    01:00 +15°C° 0 mm 1 mps 738 mmHg 83%
    02:00 +15°C° 0 mm 1 mps 738 mmHg 82%
    03:00 +14°C° 0 mm 1 mps 738 mmHg 81%
    04:00 +14°C° 0 mm 1 mps 738 mmHg 81%
    05:00 +15°C° 0 mm 1 mps 738 mmHg 77%
    06:00 +15°C° 0 mm 1 mps 738 mmHg 74%
    07:00 +16°C° 0 mm 1 mps 738 mmHg 70%
    08:00 +19°C° 0 mm 1 mps 738 mmHg 61%
    09:00 +21°C° 0 mm 1 mps 738 mmHg 52%
    10:00 +23°C° 0 mm 1 mps 738 mmHg 43%
    11:00 +24°C° 0 mm 2 mps 738 mmHg 42%
    12:00 +24°C° 0 mm 2 mps 737 mmHg 40%
    13:00 +25°C° 0 mm 3 mps 737 mmHg 38%
    14:00 +24°C° 0 mm 3 mps 737 mmHg 43%
    15:00 +22°C° 0 mm 3 mps 737 mmHg 49%
    16:00 +21°C° 0 mm 3 mps 736 mmHg 54%
    17:00 +19°C° 0 mm 2 mps 736 mmHg 63%
    18:00 +17°C° 0 mm 2 mps 737 mmHg 72%
    19:00 +16°C° 0 mm 1 mps 737 mmHg 81%
    20:00 +15°C° 0 mm 1 mps 737 mmHg 81%
    21:00 +15°C° 0 mm 1 mps 737 mmHg 82%
    22:00 +15°C° 0 mm 1 mps 737 mmHg 82%
    23:00 +14°C° 0 mm 1 mps 737 mmHg 81%

    Day after tomorrow, 22 October, Sunday

    Time Temperature Precipitation Wind Pressure Humidity
    00:00 +14°C° 0 mm 1 mps 737 mmHg 80%
    01:00 +14°C° 0 mm 1 mps 736 mmHg 80%
    02:00 +14°C° 0 mm 1 mps 736 mmHg 78%
    03:00 +13°C° 0 mm 1 mps 736 mmHg 76%
    04:00 +13°C° 0 mm 1 mps 736 mmHg 74%
    05:00 +14°C° 0 mm 1 mps 736 mmHg 71%
    06:00 +14°C° 0 mm 1 mps 736 mmHg 67%
    07:00 +15°C° 0 mm 1 mps 736 mmHg 63%
    08:00 +18°C° 0 mm 1 mps 736 mmHg 57%
    09:00 +20°C° 0 mm 1 mps 736 mmHg 52%
    10:00 +21°C° 0 mm 2 mps 736 mmHg 46%
    11:00 +23°C° 0 mm 2 mps 735 mmHg 47%
    12:00 +23°C° 0 mm 2 mps 735 mmHg 47%
    13:00 +24°C° 0 mm 3 mps 734 mmHg 48%
    14:00 +22°C° 0 mm 3 mps 734 mmHg 53%
    15:00 +21°C° 0 mm 2 mps 734 mmHg 57%
    16:00 +21°C° 0 mm 2 mps 733 mmHg 62%
    17:00 +19°C° 0 mm 2 mps 733 mmHg 69%
    18:00 +19°C° 0 mm 1 mps 733 mmHg 77%
    19:00 +16°C° 0 mm 1 mps 733 mmHg 84%
    20:00 +16°C° 0 mm 1 mps 733 mmHg 82%
    21:00 +16°C° 0 mm 1 mps 733 mmHg 80%
    22:00 +16°C° 0 mm 2 mps 733 mmHg 78%
    23:00 +16°C° 0 mm 2 mps 732 mmHg 76%

    23 October, Monday

    Time Temperature Precipitation Wind Pressure Humidity
    00:00 +16°C° 0 mm 2 mps 732 mmHg 74%
    01:00 +15°C° 0 mm 2 mps 731 mmHg 72%
    02:00 +15°C° 0.3 mm 2 mps 731 mmHg 71%
    03:00 +14°C° 0.3 mm 3 mps 731 mmHg 70%
    04:00 +14°C° 0.3 mm 3 mps 730 mmHg 68%
    05:00 +14°C° 0.3 mm 3 mps 730 mmHg 69%
    06:00 +14°C° 0.3 mm 3 mps 730 mmHg 70%
    07:00 +16°C° 0.3 mm 3 mps 729 mmHg 70%
    08:00 +17°C° 0.2 mm 3 mps 729 mmHg 68%
    09:00 +18°C° 0.2 mm 4 mps 729 mmHg 65%
    10:00 +19°C° 0.2 mm 4 mps 729 mmHg 62%
    11:00 +19°C° 0.3 mm 4 mps 728 mmHg 60%
    12:00 +19°C° 0.3 mm 4 mps 727 mmHg 58%
    13:00 +19°C° 0.3 mm 4 mps 727 mmHg 56%
    14:00 +18°C° 0.7 mm 4 mps 727 mmHg 60%
    15:00 +17°C° 0.7 mm 3 mps 726 mmHg 64%
    16:00 +17°C° 0.7 mm 3 mps 726 mmHg 68%
    17:00 +16°C° 0.4 mm 2 mps 726 mmHg 72%
    18:00 +15°C° 0.4 mm 1 mps 726 mmHg 76%
    19:00 +14°C° 0.4 mm 1 mps 726 mmHg 81%
    20:00 +14°C° 0.3 mm 1 mps 726 mmHg 81%
    21:00 +13°C° 0.3 mm 1 mps 726 mmHg 82%
    22:00 +13°C° 0.3 mm 1 mps 726 mmHg 82%
    23:00 +13°C° 0.4 mm 1 mps 726 mmHg 83%

    24 October, Tuesday

    Time Temperature Precipitation Wind Pressure Humidity
    00:00 +12°C° 0.4 mm 2 mps 726 mmHg 84%
    01:00 +12°C° 0.4 mm 2 mps 726 mmHg 85%
    02:00 +12°C° 0.2 mm 2 mps 726 mmHg 85%
    03:00 +12°C° 0.2 mm 2 mps 726 mmHg 85%
    04:00 +12°C° 0.2 mm 2 mps 726 mmHg 85%
    05:00 +12°C° 0.2 mm 2 mps 726 mmHg 83%
    06:00 +11°C° 0.2 mm 3 mps 726 mmHg 82%
    07:00 +11°C° 0.2 mm 3 mps 726 mmHg 80%
    08:00 +12°C° 0.1 mm 3 mps 726 mmHg 73%
    09:00 +13°C° 0.1 mm 3 mps 726 mmHg 66%
    10:00 +14°C° 0.1 mm 4 mps 726 mmHg 60%
    11:00 +14°C° 0.2 mm 4 mps 726 mmHg 59%
    12:00 +14°C° 0.2 mm 4 mps 726 mmHg 58%
    13:00 +15°C° 0.2 mm 4 mps 726 mmHg 57%
    14:00 +14°C° 0.3 mm 4 mps 726 mmHg 61%
    15:00 +13°C° 0.3 mm 4 mps 726 mmHg 65%
    16:00 +13°C° 0.3 mm 3 mps 726 mmHg 70%
    17:00 +12°C° 0.5 mm 3 mps 726 mmHg 73%
    18:00 +12°C° 0.5 mm 3 mps 726 mmHg 77%
    19:00 +11°C° 0.5 mm 3 mps 726 mmHg 81%
    20:00 +11°C° 0.1 mm 3 mps 726 mmHg 81%
    21:00 +11°C° 0.1 mm 3 mps 726 mmHg 81%
    22:00 +11°C° 0.1 mm 3 mps 727 mmHg 81%
    23:00 +11°C° 0.1 mm 3 mps 727 mmHg 81%

    25 October, Wednesday

    Time Temperature Precipitation Wind Pressure Humidity
    00:00 +11°C° 0.1 mm 3 mps 727 mmHg 81%
    01:00 +11°C° 0.1 mm 3 mps 727 mmHg 81%
    02:00 +11°C° 0.1 mm 3 mps 728 mmHg 81%
    03:00 +11°C° 0.1 mm 3 mps 728 mmHg 82%
    04:00 +11°C° 0.1 mm 3 mps 728 mmHg 82%
    05:00 +11°C° 0.1 mm 3 mps 729 mmHg 81%
    06:00 +12°C° 0.1 mm 3 mps 729 mmHg 80%
    07:00 +12°C° 0.1 mm 4 mps 730 mmHg 79%
    08:00 +13°C° 0 mm 4 mps 730 mmHg 73%
    09:00 +15°C° 0 mm 4 mps 731 mmHg 67%
    10:00 +16°C° 0 mm 5 mps 731 mmHg 60%
    11:00 +17°C° 0 mm 5 mps 731 mmHg 58%
    12:00 +17°C° 0 mm 5 mps 732 mmHg 56%
    13:00 +19°C° 0 mm 5 mps 732 mmHg 53%
    14:00 +18°C° 0 mm 4 mps 732 mmHg 56%
    15:00 +17°C° 0 mm 4 mps 733 mmHg 59%
    16:00 +15°C° 0 mm 4 mps 733 mmHg 61%
    17:00 +15°C° 0 mm 4 mps 734 mmHg 65%
    18:00 +14°C° 0 mm 4 mps 734 mmHg 68%
    19:00 +13°C° 0 mm 4 mps 735 mmHg 71%
    20:00 +12°C° 0 mm 4 mps 736 mmHg 73%
    21:00 +12°C° 0 mm 4 mps 736 mmHg 74%
    22:00 +11°C° 0 mm 4 mps 737 mmHg 76%
    23:00 +11°C° 0 mm 4 mps 737 mmHg 77%
    Show more